Showing default

AAC-HSI-SAT2, 56995

Orbit data source: Space-Track

AAC-HSI-SAT2, 56995 is a UK payload satellite in SSO that was launched on Mon, 12 Jun 2023 UTC via an FALCON 9 launch vehicle from the Air Force Western Test Range (AFWTR). Payload-class satellites include a variety of spacecraft equipped with specific instruments for various scientific and technological missions. These include communications satellites like Starlink; space stations such as the ISS; scientific satellites like the Hubble; Earth observation satellites from companies like Planet Labs, Umbra, and HawkEye 360; GPS; miniature CubeSats for education and research; and military/defense satellites.

Loading next visibility...
Identifier
56995, 2023-084BX
Orbit
SSO
Country
Flag of UKUK
Related business
Manufacturer
AAC ClydeSpace
Mission
Operational Commercial Imaging
Bus & Motor
CUBESAT 6U, Unknown motor
Mass
10 kg wet, ~10 kg dry
Launch date (UTC)
2023-06-12 (3 years ago)
Launch vehicle
FALCON 9
Launch site
Air Force Western Test Range (AFWTR)
Object type
Payload
Rocket body
Debris
Shape & HBR
Box + 2 Pan, 1.0 m
Radar Cross Section
0.092 m², Medium (>0.1 m² and < 1m²)

Expand to show TLE details & history
Last TLE update: 7 hours ago

TLE from 7 hours ago
0 AAC-HSI-SAT2
1 56995U 23084BX  26264.28052027  .00002187  00000-0  10201-3 0  9992
2 56995  97.8381  58.2534 0011336 206.9159 153.1489 15.20981710180942
Epoch: 2026-09-21T06:43Z
TLE epoch observation values (Epoch: 2026-09-21T06:43:56.951Z)
Latitude
0.00002°
Longitude
-42.89651°
Altitude
512.92 km
Speed
7.603 km/s
True Right ascension
03h 53m 00s
True Declination
0° 00' 00"
Sunlit
Object was in full shadow at epoch
Visualization orbit readout
Latitude
Unknown
Longitude
Unknown
Altitude
Unknown
Speed
Unknown
Apparent Right ascension
Unknown
Apparent Declination
Unknown
Sunlit
N/A
Visualization observer readout
Local Sidereal Time
06:57:01
Azimuth
Unknown
Elevation
Unknown
Doppler factor
Unknown
Orbital elements
Apogee altitude
507.659 km
Perigee altitude
492.065 km
Semi-major axis
6,877.999 km
Eccentricity
0.00113
Inclination
97.8381°
RAAN
58.2534°
Arg. of periapsis
206.9159°
True anomaly
153.2075°
Mean anomaly
153.1489°
Eccentric anomaly
153.17821°
Mean motion
3.80496 °/min
Orbital period
94.61 mins
BSTAR
0.00010201
Loading maneuver chart data...
Computing Atmospheric mass density...

Documentation

Showing up to 5 results
|